DW2070 Weather Reports


Display with metric or nautical units.
time (UTC)temp
F
wind
direction
speed
MPH
gust
MPH
rain 1hr
in
rain 24hr
in
rain mn
in
humidity
%
barometer
mb
20260904003004 79 266 5.0 12.0 0.00 0.00 0.00 55 1012.2
20260904001004 79 283 5.0 9.0 0.00 0.00 0.00 55 1012.3
20260904000025 79 254 6.0 12.0 0.00 0.00 0.00 54 1012.4
20260903235025 80 250 5.0 12.0 0.00 0.00 0.00 54 1012.5
20260903234025 80 241 5.0 12.0 0.00 0.00 0.00 55 1012.5
20260903233004 80 307 5.0 12.0 0.00 0.00 0.00 55 1012.5
20260903232004 79 249 6.0 14.0 0.00 0.00 0.00 55 1012.6
20260903230004 80 243 6.0 11.0 0.00 0.00 0.00 56 1012.8
20260903225004 79 238 6.0 15.0 0.00 0.00 0.00 57 1012.8
20260903224004 78 234 7.0 15.0 0.00 0.00 0.00 58 1012.9
20260903223025 78 247 6.0 16.0 0.00 0.00 0.00 57 1013.0
20260903222004 79 247 6.0 13.0 0.00 0.00 0.00 58 1012.9
20260903221004 78 253 7.0 14.0 0.00 0.00 0.00 59 1013.0
20260903220004 78 252 7.0 15.0 0.00 0.00 0.00 59 1013.2
20260903215004 79 250 6.0 15.0 0.00 0.00 0.00 59 1013.2
20260903214004 79 258 6.0 14.0 0.00 0.00 0.00 60 1013.2
20260903213004 79 250 6.0 13.0 0.00 0.00 0.00 60 1013.3
20260903212025 79 251 7.0 15.0 0.00 0.00 0.00 61 1013.3
20260903211004 78 246 6.0 14.0 0.00 0.00 0.00 62 1013.4
20260903210004 79 265 6.0 14.0 0.00 0.00 0.00 61 1013.5
20260903205004 79 258 6.0 14.0 0.00 0.00 0.00 62 1013.5
20260903204004 80 260 6.0 14.0 0.00 0.00 0.00 61 1013.5
20260903203025 80 251 6.0 14.0 0.00 0.00 0.00 61 1013.7
20260903202004 79 253 5.0 12.0 0.00 0.00 0.00 61 1013.7
20260903201025 79 247 6.0 13.0 0.00 0.00 0.00 62 1013.8
20260903200025 79 246 5.0 13.0 0.00 0.00 0.00 62 1013.6
20260903195004 79 247 6.0 14.0 0.00 0.00 0.00 62 1013.8
20260903194004 79 246 5.0 15.0 0.00 0.00 0.00 62 1013.8
20260903191004 79 233 5.0 11.0 0.00 0.00 0.00 61 1014.1
20260903190004 79 239 5.0 12.0 0.00 0.00 0.00 61 1014.2
20260903185004 80 249 4.0 11.0 0.00 0.00 0.00 59 1014.3
20260903184004 80 271 3.0 10.0 0.00 0.00 0.00 59 1014.3
20260903183004 79 252 3.0 8.0 0.00 0.00 0.00 58 1014.3
20260903182003 79 262 4.0 9.0 0.00 0.00 0.00 57 1014.3
20260903181025 79 265 4.0 11.0 0.00 0.00 0.00 57 1014.3
20260903175004 78 250 3.0 8.0 0.00 0.00 0.00 58 1014.5
20260903173025 78 283 2.0 4.0 0.00 0.00 0.00 58 1014.5
20260903172003 78 256 2.0 7.0 0.00 0.00 0.00 60 1014.6
20260903171004 77 262 2.0 8.0 0.00 0.00 0.00 60 1014.6
20260903170004 77 259 2.0 5.0 0.00 0.00 0.00 61 1014.6
20260903165004 76 231 2.0 6.0 0.00 0.00 0.00 61 1014.5
20260903164004 77 186 1.0 5.0 0.00 0.00 0.00 61 1014.5
20260903163004 76 91 1.0 3.0 0.00 0.00 0.00 62 1014.5
20260903162004 76 92 1.0 4.0 0.00 0.00 0.00 62 1014.5
20260903160004 72 78 1.0 4.0 0.00 0.00 0.00 71 1014.5
20260903154004 64 65 1.0 3.0 0.00 0.00 0.00 83 1014.5
20260903153004 63 65 2.0 4.0 0.00 0.00 0.00 83 1014.5
20260903152004 62 65 2.0 5.0 0.00 0.00 0.00 83 1014.5
20260903151004 62 66 2.0 5.0 0.00 0.00 0.00 82 1014.6
20260903145004 60 62 4.0 8.0 0.00 0.00 0.00 83 1014.5
20260903144003 60 66 3.0 6.0 0.00 0.00 0.00 85 1014.4
20260903143004 60 63 3.0 7.0 0.00 0.00 0.00 86 1014.3
20260903142004 59 69 3.0 6.0 0.00 0.00 0.00 86 1014.3
20260903141003 59 66 3.0 6.0 0.00 0.00 0.00 86 1014.3
20260903140004 59 59 2.0 6.0 0.00 0.00 0.00 86 1014.3
20260903135003 59 60 3.0 6.0 0.00 0.00 0.00 86 1014.3
20260903134003 59 70 3.0 7.0 0.00 0.00 0.00 86 1014.3
20260903133025 59 66 3.0 6.0 0.00 0.00 0.00 85 1014.3
20260903132004 59 66 3.0 6.0 0.00 0.00 0.00 85 1014.3
20260903131004 59 73 3.0 6.0 0.00 0.00 0.00 84 1014.2
20260903130024 59 69 2.0 6.0 0.00 0.00 0.00 83 1014.2
20260903125024 59 64 2.0 5.0 0.00 0.00 0.00 83 1014.2
20260903124003 59 63 3.0 5.0 0.00 0.00 0.00 83 1014.2
20260903123003 59 66 3.0 6.0 0.00 0.00 0.00 82 1014.2
20260903122003 59 70 2.0 6.0 0.00 0.00 0.00 83 1014.2
20260903121003 59 66 2.0 5.0 0.00 0.00 0.00 83 1014.3
20260903120003 60 60 3.0 5.0 0.00 0.00 0.00 83 1014.4
20260903115004 60 66 3.0 6.0 0.00 0.00 0.00 83 1014.4
20260903114003 60 66 2.0 7.0 0.00 0.00 0.00 84 1014.4
20260903113003 60 91 2.0 4.0 0.00 0.00 0.00 84 1014.3
20260903112003 60 66 1.0 4.0 0.00 0.00 0.00 84 1014.4
20260903111003 60 59 0.0 3.0 0.00 0.00 0.00 84 1014.4
20260903110003 60 59 1.0 2.0 0.00 0.00 0.00 84 1014.5
20260903105024 60 58 2.0 6.0 0.00 0.00 0.00 84 1014.5
20260903104004 60 59 1.0 5.0 0.00 0.00 0.00 85 1014.5
20260903103003 60 60 1.0 4.0 0.00 0.00 0.00 85 1014.5
20260903102003 60 60 1.0 5.0 0.00 0.00 0.00 86 1014.6
20260903101003 60 60 0.0 4.0 0.00 0.00 0.00 86 1014.6
20260903095003 61 0 0.0 0.0 0.00 0.00 0.00 85 1014.7
20260903094003 61 0 0.0 0.0 0.00 0.00 0.00 85 1014.7
20260903093003 61 0 0.0 0.0 0.00 0.00 0.00 85 1014.9
20260903092003 61 0 0.0 0.0 0.00 0.00 0.00 84 1014.8
20260903091003 62 0 0.0 0.0 0.00 0.00 0.00 85 1014.9
20260903090003 62 0 0.0 0.0 0.00 0.00 0.00 85 1014.9
20260903085003 62 0 0.0 0.0 0.00 0.00 0.00 85 1015.1
20260903084004 62 0 0.0 0.0 0.00 0.00 0.00 85 1015.1
20260903083003 62 0 0.0 0.0 0.00 0.00 0.00 85 1015.1
20260903082003 62 0 0.0 0.0 0.00 0.00 0.00 85 1015.0
20260903081003 63 0 0.0 0.0 0.00 0.00 0.00 84 1015.1
20260903075003 63 0 0.0 0.0 0.00 0.00 0.00 84 1015.0
20260903074003 63 0 0.0 0.0 0.00 0.00 0.00 84 1015.0
20260903073024 63 0 0.0 0.0 0.00 0.00 0.00 84 1015.0
20260903071004 64 0 0.0 0.0 0.00 0.00 0.00 84 1014.9
20260903070005 64 0 0.0 0.0 0.00 0.00 0.00 84 1014.9
20260903065005 64 53 2.0 4.0 0.00 0.00 0.00 83 1014.9
20260903064026 64 62 1.0 5.0 0.00 0.00 0.00 83 1015.0
20260903062005 65 81 2.0 5.0 0.00 0.00 0.00 83 1014.9
20260903061004 65 143 1.0 4.0 0.00 0.00 0.00 82 1014.9
20260903060025 65 0 3.0 3.0 0.00 0.00 0.00 82 1015.0
20260903055005 66 0 1.0 1.0 0.00 0.00 0.00 82 1014.9
20260903054005 66 0 1.0 1.0 0.00 0.00 0.00 81 1015.0
20260903053004 66 0 1.0 1.0 0.00 0.00 0.00 81 1015.0
20260903052046 66 0 0.0 1.0 0.00 0.00 0.00 81 1015.0
20260903051025 66 187 0.0 1.0 0.00 0.00 0.00 81 1015.1
20260903050004 66 187 1.0 3.0 0.00 0.00 0.00 81 1015.1
20260903043004 67 188 0.0 4.0 0.00 0.00 0.00 80 1015.3
20260903042004 67 0 0.0 0.0 0.00 0.00 0.00 79 1015.3
20260903041025 68 188 1.0 4.0 0.00 0.00 0.00 79 1015.3
20260903040004 68 188 1.0 4.0 0.00 0.00 0.00 78 1015.2
20260903035009 68 181 1.0 6.0 0.00 0.00 0.00 78 1015.1
20260903033025 69 181 2.0 5.0 0.00 0.00 0.00 76 1015.0
20260903032004 69 209 2.0 4.0 0.00 0.00 0.00 75 1015.0
20260903031004 69 204 2.0 6.0 0.00 0.00 0.00 75 1014.9
20260903030025 70 221 3.0 7.0 0.00 0.00 0.00 74 1014.8
20260903025046 70 260 4.0 7.0 0.00 0.00 0.00 73 1014.8
20260903024004 71 243 3.0 8.0 0.00 0.00 0.00 71 1014.8
20260903023004 71 239 3.0 8.0 0.00 0.00 0.00 70 1014.7
20260903021025 73 241 3.0 9.0 0.00 0.00 0.00 67 1014.7
20260903015004 74 243 5.0 11.0 0.00 0.00 0.00 63 1014.6
20260903014004 76 243 4.0 10.0 0.00 0.00 0.00 59 1014.8
20260903013004 77 232 4.0 8.0 0.00 0.00 0.00 54 1014.7
20260903012004 78 246 4.0 11.0 0.00 0.00 0.00 48 1014.7
20260903011025 78 251 5.0 10.0 0.00 0.00 0.00 48 1014.7
20260903010004 79 251 5.0 12.0 0.00 0.00 0.00 44 1014.7
20260903004004 80 251 5.0 13.0 0.00 0.00 0.00 44 1014.7